Tracking 19709 objects as of 18-Jun-2019
HD Live streaming from Space Station
objects crossing your sky now

DMSP 5D-3 F19 DEB

Track DMSP 5D-3 F19 DEB now!
10-day predictions


NORAD ID: 39632
Int'l Code: 2014-015C
Perigee: 841.6 km
Apogee: 845.1 km
Inclination: 98.8 °
Period: 101.6 minutes
Semi major axis: 7214 km
RCS: Unknown
Launch date: April 3, 2014
Source: United States (US)
Launch site: AIR FORCE WESTERN TEST RANGE (AFWTR)

Note: This is SATELLITE DEBRIS
aabbcc
Your satellite tracking list
Your tracking list is empty




NASA's NSSDC Master Catalog

Two Line Element Set (TLE):
1 39632U 14015C   19168.62627851  .00000257  00000-0  15015-3 0  9995
2 39632  98.7510 187.1950 0002439 289.9450  70.1462 14.16801440268972
Source of the keplerian elements: AFSPC